EN

Hourly Weather Lago de Yojoa

Today, 24 July, Saturday

Time Temperature Precipitation Wind Pressure Humidity
00:00 +19°C° 0 mm 0 mps 706 mmHg 98%
01:00 +19°C° 0 mm 0 mps 705 mmHg 98%
02:00 +18°C° 0 mm 0 mps 705 mmHg 98%
03:00 +18°C° 0 mm 0 mps 705 mmHg 98%
04:00 +18°C° 0 mm 0 mps 705 mmHg 97%
05:00 +18°C° 0 mm 0 mps 705 mmHg 96%
06:00 +19°C° 0 mm 0 mps 705 mmHg 96%
07:00 +21°C° 0 mm 0 mps 706 mmHg 86%
08:00 +24°C° 0 mm 1 mps 706 mmHg 77%
09:00 +26°C° 0 mm 1 mps 706 mmHg 68%
10:00 +28°C° 0 mm 1 mps 706 mmHg 61%
11:00 +29°C° 0 mm 1 mps 706 mmHg 53%
12:00 +31°C° 0 mm 2 mps 706 mmHg 46%
13:00 +31°C° 0 mm 2 mps 705 mmHg 44%
14:00 +31°C° 0 mm 2 mps 705 mmHg 43%
15:00 +32°C° 0 mm 2 mps 704 mmHg 42%
16:00 +30°C° 0 mm 2 mps 704 mmHg 52%
17:00 +28°C° 0 mm 2 mps 704 mmHg 62%
18:00 +26°C° 0 mm 1 mps 704 mmHg 72%
19:00 +24°C° 0 mm 1 mps 704 mmHg 79%
20:00 +23°C° 0 mm 1 mps 705 mmHg 86%
21:00 +20°C° 0 mm 0 mps 705 mmHg 93%
22:00 +19°C° 0 mm 0 mps 705 mmHg 94%
23:00 +19°C° 0 mm 0 mps 705 mmHg 95%

Tomorrow, 25 July, Sunday

Time Temperature Precipitation Wind Pressure Humidity
00:00 +19°C° 0 mm 0 mps 704 mmHg 97%
01:00 +19°C° 0 mm 0 mps 704 mmHg 97%
02:00 +19°C° 0 mm 0 mps 704 mmHg 97%
03:00 +18°C° 0 mm 0 mps 703 mmHg 97%
04:00 +18°C° 0 mm 0 mps 703 mmHg 96%
05:00 +18°C° 0 mm 0 mps 704 mmHg 96%
06:00 +18°C° 0 mm 0 mps 704 mmHg 95%
07:00 +23°C° 0 mm 1 mps 704 mmHg 82%
08:00 +25°C° 0 mm 1 mps 705 mmHg 70%
09:00 +28°C° 0 mm 1 mps 705 mmHg 57%
10:00 +29°C° 0 mm 1 mps 705 mmHg 52%
11:00 +31°C° 0 mm 1 mps 704 mmHg 48%
12:00 +32°C° 0 mm 2 mps 704 mmHg 43%
13:00 +32°C° 0 mm 2 mps 704 mmHg 42%
14:00 +32°C° 0 mm 2 mps 703 mmHg 41%
15:00 +32°C° 0 mm 2 mps 703 mmHg 40%
16:00 +30°C° 0 mm 2 mps 703 mmHg 50%
17:00 +28°C° 0 mm 2 mps 703 mmHg 60%
18:00 +26°C° 0 mm 2 mps 703 mmHg 70%
19:00 +25°C° 0 mm 1 mps 703 mmHg 76%
20:00 +23°C° 0 mm 1 mps 703 mmHg 83%
21:00 +20°C° 0 mm 0 mps 704 mmHg 90%
22:00 +20°C° 0 mm 0 mps 704 mmHg 90%
23:00 +20°C° 0 mm 0 mps 704 mmHg 89%

Day after tomorrow, 26 July, Monday

Time Temperature Precipitation Wind Pressure Humidity
00:00 +19°C° 0 mm 0 mps 704 mmHg 89%
01:00 +19°C° 0 mm 0 mps 703 mmHg 89%
02:00 +19°C° 0 mm 0 mps 703 mmHg 89%
03:00 +21°C° 0 mm 1 mps 702 mmHg 89%
04:00 +21°C° 0 mm 1 mps 702 mmHg 88%
05:00 +21°C° 0 mm 1 mps 702 mmHg 87%
06:00 +21°C° 0 mm 1 mps 703 mmHg 86%
07:00 +23°C° 0 mm 1 mps 703 mmHg 74%
08:00 +26°C° 0 mm 1 mps 704 mmHg 63%
09:00 +29°C° 0 mm 1 mps 704 mmHg 51%
10:00 +30°C° 0 mm 1 mps 704 mmHg 48%
11:00 +31°C° 0 mm 1 mps 704 mmHg 44%
12:00 +34°C° 0 mm 2 mps 704 mmHg 41%
13:00 +34°C° 0 mm 2 mps 703 mmHg 41%
14:00 +32°C° 0 mm 2 mps 703 mmHg 41%
15:00 +33°C° 0 mm 3 mps 702 mmHg 41%
16:00 +30°C° 0.2 mm 2 mps 702 mmHg 54%
17:00 +28°C° 0.2 mm 2 mps 702 mmHg 66%
18:00 +25°C° 0.2 mm 2 mps 702 mmHg 79%
19:00 +24°C° 0.6 mm 1 mps 703 mmHg 84%
20:00 +23°C° 0.6 mm 1 mps 703 mmHg 89%
21:00 +20°C° 0.6 mm 0 mps 704 mmHg 94%
22:00 +20°C° 0.1 mm 0 mps 704 mmHg 95%
23:00 +20°C° 0.1 mm 0 mps 704 mmHg 96%

27 July, Tuesday

Time Temperature Precipitation Wind Pressure Humidity
00:00 +20°C° 0.1 mm 0 mps 704 mmHg 97%
01:00 +19°C° 0 mm 0 mps 704 mmHg 97%
02:00 +19°C° 0 mm 0 mps 703 mmHg 96%
03:00 +19°C° 0 mm 0 mps 703 mmHg 96%
04:00 +19°C° 0 mm 0 mps 703 mmHg 96%
05:00 +19°C° 0 mm 0 mps 703 mmHg 95%
06:00 +19°C° 0 mm 0 mps 703 mmHg 95%
07:00 +23°C° 0 mm 1 mps 704 mmHg 83%
08:00 +26°C° 0 mm 1 mps 704 mmHg 72%
09:00 +29°C° 0 mm 1 mps 705 mmHg 60%
10:00 +30°C° 0 mm 1 mps 705 mmHg 54%
11:00 +32°C° 0 mm 1 mps 704 mmHg 48%
12:00 +34°C° 0 mm 2 mps 704 mmHg 42%
13:00 +32°C° 0.1 mm 2 mps 703 mmHg 49%
14:00 +30°C° 0.1 mm 1 mps 703 mmHg 55%
15:00 +29°C° 0.1 mm 1 mps 702 mmHg 62%
16:00 +27°C° 2.2 mm 1 mps 702 mmHg 73%
17:00 +25°C° 2.2 mm 1 mps 703 mmHg 84%
18:00 +23°C° 2.2 mm 1 mps 703 mmHg 95%
19:00 +23°C° 2.3 mm 1 mps 703 mmHg 96%
20:00 +21°C° 2.3 mm 0 mps 704 mmHg 97%
21:00 +21°C° 2.3 mm 0 mps 704 mmHg 99%
22:00 +20°C° 0.8 mm 0 mps 704 mmHg 98%
23:00 +20°C° 0.8 mm 0 mps 704 mmHg 98%

28 July, Wednesday

Time Temperature Precipitation Wind Pressure Humidity
00:00 +20°C° 0.8 mm 0 mps 704 mmHg 98%
01:00 +20°C° 0 mm 0 mps 703 mmHg 98%
02:00 +20°C° 0 mm 0 mps 703 mmHg 98%
03:00 +20°C° 0 mm 0 mps 703 mmHg 98%
04:00 +20°C° 0 mm 0 mps 703 mmHg 98%
05:00 +19°C° 0 mm 0 mps 703 mmHg 98%
06:00 +19°C° 0 mm 0 mps 703 mmHg 97%
07:00 +22°C° 0 mm 0 mps 704 mmHg 88%
08:00 +24°C° 0 mm 0 mps 704 mmHg 79%
09:00 +26°C° 0 mm 0 mps 705 mmHg 69%
10:00 +28°C° 0.6 mm 1 mps 704 mmHg 71%
11:00 +29°C° 0.6 mm 1 mps 704 mmHg 72%
12:00 +29°C° 0.6 mm 1 mps 703 mmHg 73%
13:00 +29°C° 1.5 mm 1 mps 703 mmHg 75%
14:00 +29°C° 1.5 mm 1 mps 702 mmHg 77%
15:00 +28°C° 1.5 mm 1 mps 702 mmHg 79%
16:00 +27°C° 2 mm 1 mps 702 mmHg 85%
17:00 +25°C° 2 mm 1 mps 702 mmHg 90%
18:00 +24°C° 2 mm 1 mps 702 mmHg 95%
19:00 +23°C° 1.8 mm 1 mps 702 mmHg 96%
20:00 +21°C° 1.8 mm 0 mps 702 mmHg 97%
21:00 +21°C° 1.8 mm 0 mps 703 mmHg 98%
22:00 +21°C° 0.7 mm 0 mps 703 mmHg 98%
23:00 +20°C° 0.7 mm 0 mps 702 mmHg 98%

29 July, Thursday

Time Temperature Precipitation Wind Pressure Humidity
00:00 +20°C° 0.7 mm 0 mps 702 mmHg 99%
01:00 +20°C° 0.8 mm 0 mps 702 mmHg 98%
02:00 +20°C° 0.8 mm 0 mps 702 mmHg 98%
03:00 +22°C° 0.8 mm 1 mps 702 mmHg 98%
04:00 +20°C° 0.1 mm 0 mps 702 mmHg 97%
05:00 +20°C° 0.1 mm 0 mps 702 mmHg 97%
06:00 +20°C° 0.1 mm 0 mps 703 mmHg 97%
07:00 +22°C° 0.1 mm 0 mps 703 mmHg 88%
08:00 +26°C° 0.1 mm 1 mps 704 mmHg 79%
09:00 +27°C° 0.1 mm 1 mps 704 mmHg 70%
10:00 +28°C° 0.1 mm 1 mps 704 mmHg 64%
11:00 +29°C° 0.1 mm 1 mps 704 mmHg 57%
12:00 +30°C° 0.1 mm 1 mps 703 mmHg 50%
13:00 +31°C° 0.1 mm 1 mps 703 mmHg 49%
14:00 +31°C° 0.1 mm 1 mps 702 mmHg 48%
15:00 +31°C° 0.1 mm 1 mps 702 mmHg 47%
16:00 +29°C° 0.5 mm 1 mps 702 mmHg 62%
17:00 +26°C° 0.5 mm 1 mps 702 mmHg 77%
18:00 +24°C° 0.5 mm 1 mps 702 mmHg 92%
19:00 +23°C° 0.7 mm 1 mps 702 mmHg 94%
20:00 +23°C° 0.7 mm 1 mps 703 mmHg 96%
21:00 +20°C° 0.7 mm 0 mps 703 mmHg 97%
22:00 +20°C° 0 mm 0 mps 703 mmHg 98%
23:00 +20°C° 0 mm 0 mps 703 mmHg 98%
Show more